Location: Newark
(44.3248°N, 23.7839°E)
Time: 09:23:32
(UTC+00:00)

UNISAT 6 - Pass Details

Date: 20 April 2024
Orbit: 593 x 667 km, 97.7° (Epoch: 29 May)

Event Time Altitude Azimuth Distance (km) Brightness Sun altitude
Rises 01:23:15 0° 135° (SE) 2,944 ? -20.8°
Maximum altitude 01:29:22 25° 67° (ENE) 1,264 ? -20.0°
Drops below altitude 10° 01:32:57 10° 12° (NNE) 1,999 ? -19.5°
Sets 01:35:24 0° 359° (N) 2,897 ? -19.2°
